Showing default

COSMOS 2270, 23001

Orbit data source: Space-Track

COSMOS 2270, 23001 is a payload satellite owned by VKS (CIS) in LEO that was launched on Sat, 12 Feb 1994 UTC via a TSIKLON-3 launch vehicle from the Plesetsk Missile And Space Complex (PKMTR). Payload-class satellites include a variety of spacecraft equipped with specific instruments for various scientific and technological missions. These include communications satellites like Starlink; space stations such as the ISS; scientific satellites like the Hubble; Earth observation satellites from companies like Planet Labs, Umbra, and HawkEye 360; GPS; miniature CubeSats for education and research; and military/defense satellites.

Loading next visibility...
Identifier
23001, 1994-011C
Orbit
LEO
Country
Flag of CISCIS
Related business
Manufacturer
NPO PM
Mission
Defense Communications
Bus & Motor
STRELA-3, Unknown motor
Mass
225 kg wet, 225 kg dry
Launch date (UTC)
1994-02-12 (32 years ago)
Launch vehicle
TSIKLON-3
Launch site
Plesetsk Missile And Space Complex (PKMTR)
Object type
Payload
Rocket body
Debris
Shape & HBR
Cyl, 0.8 m
Radar Cross Section
1.257 m², Large (>1 m²)

Expand to show TLE details & history
Last TLE update: 9 hours ago

TLE from 9 hours ago
0 COSMOS 2270
1 23001U 94011C   25352.66328278  .00000031  00000-0  11289-3 0  9998
2 23001  82.5740  69.2281 0006846 220.8808 307.7424 12.62929544467866
Epoch: 2025-12-18T15:55Z
TLE epoch observation values (Epoch: 2025-12-18T15:55:07.632Z)
Latitude
11.29779°
Longitude
-78.55398°
Altitude
1,409.594 km
Speed
7.158 km/s
True Right ascension
16h 30m 58s
True Declination
11° 14' 15"
Sunlit
Object was in daylight at epoch
Visualization orbit readout
Latitude
Unknown
Longitude
Unknown
Altitude
Unknown
Speed
Unknown
Apparent Right ascension
Unknown
Apparent Declination
Unknown
Sunlit
N/A
Visualization observer readout
Local Sidereal Time
23:54:39
Azimuth
Unknown
Elevation
Unknown
Doppler factor
Unknown
Orbital elements
Apogee altitude
1,413.526 km
Perigee altitude
1,402.865 km
Semi-major axis
7,786.333 km
Eccentricity
0.00068
Inclination
82.574°
RAAN
69.2281°
Arg. of periapsis
220.8808°
True anomaly
307.68033°
Mean anomaly
307.7424°
Eccentric anomaly
307.71137°
Mean motion
3.15896 °/min
Orbital period
113.96 mins
BSTAR
0.00011289
Loading maneuver chart data...
Computing Atmospheric mass density...
Loading historical data...
Loading historical data...
Loading historical data...
Loading historical data...
Loading historical data...
Loading historical data...
Loading historical data...

Documentation

Showing up to 5 results
|